Regional Weather Roundup
Issued by NWS

Home | Current Version | Previous Version | Graphics & Text | Print | Product List | Glossary On
Versions: 1 2 3 4 5 6 7 8 9 10 11 12 13 14 15 16 17 18 19 20 21 22 23 24 25 26 27
000
ASUS45 KSLC 230210
RWRUT

UTAH REGIONAL WEATHER ROUNDUP
NATIONAL WEATHER SERVICE SALT LAKE CITY UT
800 PM MDT SAT APR 22 2017

UTZ001>011-023>025-230300-

NORTHERN UTAH

CITY           SKY/WX    TMP DP  RH WIND       PRES   REMARKS
BRIGHAM CITY   MOCLDY    56  36  46 E3        30.05F
HILL AFB       NOT AVBL
LOGAN          MOCLDY    53  40  61 N7        30.04F
OGDEN          MOCLDY    55  33  43 CALM      30.04F
SALT LAKE CITY MOCLDY    58  39  49 N10       30.03F
TOOELE VALLEY  CLOUDY    54  36  50 CALM      30.05S
WENDOVER       MOCLDY    58  25  28 N3        30.02F
HEBER CITY     MOCLDY    55  25  30 S3        30.04S
WEST JORDAN    CLOUDY    56  43  62 NW9       30.05S

$$

UTZ011>015-024>027-230300-

CENTRAL/NORTHEAST UTAH

CITY           SKY/WX    TMP DP  RH WIND       PRES   REMARKS
PROVO AIRPORT  MOCLDY    59  31  34 CALM      30.04F
MOAB/CANYONLAN PTCLDY    62  13  14 NW7       30.05S
DELTA          CLOUDY    57  28  33 CALM      30.03F
PRICE          CLEAR     55  16  21 S3        30.11S
ROOSEVELT      CLEAR     55  21  26 CALM      30.11F
VERNAL         CLEAR     54  20  26 S3        30.09F

$$

UTZ013>016-019>022-027-230300-

SOUTHERN UTAH

CITY           SKY/WX    TMP DP  RH WIND       PRES   REMARKS
BRYCE CANYON   PTCLDY    51  18  27 SE12      30.17S
CEDAR CITY     MOCLDY    59  29  31 SW5       30.03F
MILFORD        MOCLDY    58  30  34 N5        30.01F
ST GEORGE      MOCLDY    77  24  14 NW3       29.91F
HANKSVILLE     CLEAR     63  12  14 CALM      30.09S
BLANDING       CLEAR     56  15  19 S7        30.18S

$$

REGIONAL REPORTS     COLORADO/ARIZONA

CITY           SKY/WX    TMP DP  RH WIND       PRES   REMARKS
CRAIG, CO      CLEAR     45  31  58 SW7       30.12S
GRAND JUNCTION CLEAR     61  18  18 W3        30.06F
RIFLE, CO      CLEAR     56  21  25 SW3       30.10S
MONTROSE, CO   CLOUDY    57  14  18 CALM      30.11F
CORTEZ, CO     CLEAR     58  18  21 S6        30.12R
COLORADO CITY    N/A     68  30  24 SE6       30.04F
PAGE, AZ       MOCLDY    65  19  17 NE6       30.04F
GRAND CANYON   CLEAR     58  24  27 NE6       30.13S
KINGMAN, AZ    CLEAR     74  26  16 N7        29.93F
FLAGSTAFF, AZ  PTCLDY    60  21  22 E10       30.13S

$$

REGIONAL REPORTS    NEVADA/IDAHO/WYOMING

CITY           SKY/WX    TMP DP  RH WIND       PRES   REMARKS
LAS VEGAS, NV  MOCLDY    81  18   9 CALM      29.85F
ELY, NY        CLOUDY    56  30  37 S8        30.03F
ELKO, NV       MOCLDY    63  34  33 N8        29.94F
POCATELLO, ID  CLOUDY    52  31  44 S10       30.02S
BURLEY, ID     CLOUDY    58  22  24 S15       29.95F
FORT BRIDGER,  CLEAR     52  27  37 CALM      30.12S
EVANSTON, WY   CLOUDY    49  24  37 SW9       30.09S
ROCK SPRINGS,  CLOUDY    50  18  28 SE9       30.09F
KEMMERER, WY     N/A     48  21  34 CALM      30.10S

$$




USA.gov is the U.S. government's official web portal to all federal, state and local government web resources and services.